ATLAS 5 CENTAUR DEB, 46848

Orbit data source: Space-Track

ATLAS 5 CENTAUR DEB, 46848 is space debris in HEO originally from a launch on Wed, 17 Oct 2018 UTC launched from the Air Force Eastern Test Range (AFETR). Debris objects in space refer to the collection of defunct objects orbiting the Earth. Examples of debris include non-operational satellites, rocket bodies, and fragments generated from explosions, collisions, or faulty payload assembly.

Loading next visibility...
Identifier
46848, 2018-079DD
Orbit
HEO
Country
Flag of USUS
Related business
Flag of USUnited Launch Alliance/Lockheed Martin (US)
Manufacturer
ULA Decatur
Mission
Spacecraft
Bus & Motor
Unknown
Mass
Unknown
Launch date (UTC)
2018-10-17 (8 years ago)
Launch vehicle
Unknown
Launch site
Air Force Eastern Test Range (AFETR)
Object type
Payload
Rocket body
Debris
Shape & HBR
Unknown shape, 1.1 m
Radar Cross Section
Large (>1 m²)

Expand to show TLE details & history
Last TLE update: 4 days ago

TLE from 4 days ago
0 ATLAS 5 CENTAUR DEB
1 46848U 18079DD  26250.47071290 -.00000161  00000-0  00000-0 0  9999
2 46848  13.3752  44.4105 4425360 291.6439  27.5892  1.79127623 38269
Epoch: 2026-09-07T11:17Z
TLE epoch observation values (Epoch: 2026-09-07T11:17:49.594Z)
Latitude
-0.00009°
Longitude
-111.52658°
Altitude
13,396.196 km
Speed
5.138 km/s
True Right ascension
02h 57m 55s
True Declination
0° 00' 00"
Sunlit
Object was in daylight at epoch
Visualization orbit readout
Latitude
Unknown
Longitude
Unknown
Altitude
Unknown
Speed
Unknown
Apparent Right ascension
Unknown
Apparent Declination
Unknown
Sunlit
N/A
Visualization observer readout
Local Sidereal Time
05:03:06
Azimuth
Unknown
Elevation
Unknown
Doppler factor
Unknown
Orbital elements
Apogee altitude
34,937.723 km
Perigee altitude
9,588.262 km
Semi-major axis
28,641.13 km
Eccentricity
0.44254
Inclination
13.3752°
RAAN
44.4105°
Arg. of periapsis
291.6439°
True anomaly
68.33068°
Mean anomaly
27.5892°
Eccentric anomaly
45.75196°
Mean motion
0.44777 °/min
Orbital period
803.98 mins
BSTAR
0
Loading maneuver chart data...
Computing Atmospheric mass density...

Documentation

Showing up to 5 results
|